Regional Weather Roundup
Issued by NWS Jackson, KY

Home | Current Version | Previous Version | Graphics & Text | Print | Product List | Glossary On
Versions: 1 2 3 4 5 6 7 8 9 10 11 12 13 14 15 16 17 18 19 20 21 22 23 24 25 26 27 28 29 30 31 32 33 34 35 36 37 38 39 40 41 42 43 44 45 46 47 48 49 50
882
ASUS43 KJKL 090210
RWRJKL

EAST KENTUCKY HOURLY WEATHER ROUNDUP
NATIONAL WEATHER SERVICE JACKSON KY
900 PM EST MON FEB 08 2016

NOTE: "FAIR" INDICATES FEW OR NO CLOUDS BELOW 12,000 FEET WITH
NO SIGNIFICANT WEATHER AND/OR OBSTRUCTIONS TO VISIBILITY.

* THESE REPORTS ARE NOT UNDER NWS QUALITY CONTROL AND MAY NOT
  REPORT WEATHER SUCH AS PRECIPITATION AND FOG.

KYZ079-080-083-085-087-088-110-112-115-119-120-090300
...EASTERN KENTUCKY...

CITY           SKY/WX    TMP DP  RH WIND       PRES   REMARKS
JACKSON        CLOUDY    31  26  82 W7        29.71S WCI  24
LONDON         LGT SNOW  30  26  85 W15       29.76R FOG     WCI  19
SOMERSET*      FLURRIES  30  27  86 W9        29.81S WCI  22
MONTICELLO*    FLURRIES  29  25  85 W17G24    29.83S WCI  17
WILLIAMSBURG*  CLOUDY    28  28 100 CALM      29.78R
MIDDLESBORO*   LGT SNOW  33  30  90 CALM      29.75S
HARLAN APT*    CLOUDY    32  30  93 CALM      29.72S
HAZARD APT*    LGT RAIN N/A N/A N/A W6        29.72F
BLACK MTN*       N/A     21  21 100 W2          N/A
BIG SANDY*     LGT SNOW  32  32  99 W5        29.70S WCI  28
MOREHEAD APT*  LGT SNOW  32  30  93 W8        29.73S WCI  25
$$

KYZ035-036-041-042-044-050-067-078-099-090300
...CENTRAL KENTUCKY...

CITY           SKY/WX    TMP DP  RH WIND       PRES   REMARKS
MT STERLING*   CLOUDY    30  28  93 NW9G23    29.75R WCI  22
DANVILLE*      CLOUDY    28  23  80 NW13G23   29.80R WCI  18
RICHMOND*      CLOUDY    30  25  80 W13G22    29.76S WCI  20
LEXINGTON      LGT SNOW  27  23  85 W14G28    29.77R FOG     WCI  16
FRANKFORT      LGT SNOW  27  22  81 W8G21     29.77S WCI  19
$$

KYZ091>093-OHZ055-061-077-WVZ005-015-034-035-042-090300
...SOUTHERN OHIO/WEST VIRGINIA...

CITY           SKY/WX    TMP DP  RH WIND       PRES   REMARKS
COVINGTON      LGT SNOW  26  24  92 W14       29.73R FOG     WCI  14
COLUMBUS       LGT SNOW  32  32 100 CALM      29.63S FOG
DAYTON         FLURRIES  29  26  89 NW16      29.68R WCI  17
WILMINGTON     LGT SNOW  31  28  89 NW17      29.66R FOG     WCI  19
HUNTINGTON     MOCLDY    35  29  78 SW8       29.68S WCI  29
CHARLESTON     CLOUDY    34  30  85 SW7       29.67S WCI  28
PINEVILLE*       N/A     31  29  90 MISG      29.71S
BECKLEY          N/A     29  24  82 W8        29.62F WCI  21
$$

VAZ002-007-008-TNZ017-027-036-066-071-090300
...SOUTHWEST VIRGINIA/EAST TENNESSEE...

CITY           SKY/WX    TMP DP  RH WIND       PRES   REMARKS
BRISTOL        CLOUDY    33  31  92 SW6       29.71F WCI  28
KNOXVILLE      FLURRIES  36  26  67 W20G37    29.78R WCI  25
OAK RIDGE      CLOUDY    33  26  75 W8G18     29.80R WCI  26
CROSSVILLE     LGT SNOW  27  22  81 W14       29.79F WCI  16
NASHVILLE      LGT SNOW  31  25  78 NW7       29.90S WCI  24
$$

...KEY TO REMARKS...
VSB - VISIBILITY IN MILES
WCI - WIND CHILL INDEX
HX  - HEAT INDEX

$$




USA.gov is the U.S. government's official web portal to all federal, state and local government web resources and services.